Time,TemperatureF,DewpointF,PressureIn,WindDirection,WindDirectionDegrees,WindSpeedMPH,WindSpeedGustMPH,Humidity,HourlyPrecipIn,Conditions,Clouds,dailyrainin,SoftwareType,DateUTC
2014-01-04 00:03:00,26.4,21.1,30.54,NNE,22,11.4,-999.0,80,-99.99,,,0.00,Acu-Link.com,2014-01-04 09:03:00,
2014-01-04 00:19:00,26.8,21.2,30.53,NNW,337,10.9,-999.0,79,-99.99,,,0.00,Acu-Link.com,2014-01-04 09:19:00,
2014-01-04 00:34:00,26.4,21.1,30.54,NE,45,11.9,-999.0,80,-99.99,,,0.00,Acu-Link.com,2014-01-04 09:34:00,
2014-01-04 00:49:00,26.2,21.5,30.53,NNE,22,16.1,-999.0,82,-99.99,,,0.00,Acu-Link.com,2014-01-04 09:49:00,
2014-01-04 01:04:00,26.4,21.4,30.52,NNE,22,15.0,-999.0,81,-99.99,,,0.00,Acu-Link.com,2014-01-04 10:04:00,
2014-01-04 01:20:00,26.4,21.1,30.52,NNE,22,11.9,-999.0,80,-99.99,,,0.00,Acu-Link.com,2014-01-04 10:20:00,
2014-01-04 01:35:00,26.4,20.5,30.51,NE,45,14.5,-999.0,78,-99.99,,,0.00,Acu-Link.com,2014-01-04 10:35:00,
2014-01-04 01:50:00,26.4,20.5,30.51,NNE,22,13.5,-999.0,78,-99.99,,,0.00,Acu-Link.com,2014-01-04 10:50:00,
2014-01-04 02:05:00,26.2,20.6,30.50,North,0,13.5,-999.0,79,-99.99,,,0.00,Acu-Link.com,2014-01-04 11:05:00,
2014-01-04 02:21:00,26.2,20.3,30.50,NNE,22,11.9,-999.0,78,-99.99,,,0.00,Acu-Link.com,2014-01-04 11:21:00,
2014-01-04 02:36:00,26.4,20.5,30.50,NNE,22,13.0,-999.0,78,-99.99,,,0.00,Acu-Link.com,2014-01-04 11:36:00,
2014-01-04 02:51:00,26.6,21.0,30.49,NNE,22,15.5,-999.0,79,-99.99,,,0.00,Acu-Link.com,2014-01-04 11:51:00,
2014-01-04 03:06:00,26.8,21.2,30.49,NE,45,16.6,-999.0,79,-99.99,,,0.00,Acu-Link.com,2014-01-04 12:06:00,
2014-01-04 03:21:00,26.8,21.2,30.49,NNE,22,17.6,-999.0,79,-99.99,,,0.00,Acu-Link.com,2014-01-04 12:21:00,
2014-01-04 03:37:00,26.8,20.9,30.48,NNE,22,18.1,-999.0,78,-99.99,,,0.00,Acu-Link.com,2014-01-04 12:37:00,
2014-01-04 03:52:00,27.1,21.2,30.48,NE,45,15.0,-999.0,78,-99.99,,,0.00,Acu-Link.com,2014-01-04 12:52:00,
2014-01-04 04:07:00,27.0,21.4,30.47,NNE,22,18.1,-999.0,79,-99.99,,,0.00,Acu-Link.com,2014-01-04 13:07:00,
2014-01-04 04:22:00,27.3,21.4,30.46,East,90,13.0,-999.0,78,-99.99,,,0.00,Acu-Link.com,2014-01-04 13:22:00,
2014-01-04 04:38:00,27.3,21.1,30.45,North,0,15.5,-999.0,77,-99.99,,,0.00,Acu-Link.com,2014-01-04 13:38:00,
2014-01-04 04:53:00,28.2,21.3,30.44,NE,45,11.9,-999.0,75,-99.99,,,0.00,Acu-Link.com,2014-01-04 13:53:00,
2014-01-04 05:08:00,28.6,21.4,30.43,ENE,67,16.1,-999.0,74,-99.99,,,0.00,Acu-Link.com,2014-01-04 14:08:00,
2014-01-04 05:24:00,28.2,21.6,30.42,NE,45,16.1,-999.0,76,-99.99,,,0.00,Acu-Link.com,2014-01-04 14:24:00,
2014-01-04 05:39:00,28.2,21.3,30.42,NNE,22,18.6,-999.0,75,-99.99,,,0.00,Acu-Link.com,2014-01-04 14:39:00,
2014-01-04 05:54:00,28.2,21.3,30.41,NW,315,16.6,-999.0,75,-99.99,,,0.00,Acu-Link.com,2014-01-04 14:54:00,
2014-01-04 06:09:00,28.9,21.4,30.40,NNW,337,16.6,-999.0,73,-99.99,,,0.00,Acu-Link.com,2014-01-04 15:09:00,
2014-01-04 06:25:00,28.8,21.6,30.40,NNE,22,14.0,-999.0,74,-99.99,,,0.00,Acu-Link.com,2014-01-04 15:25:00,
2014-01-04 06:40:00,29.3,21.7,30.38,North,0,13.5,-999.0,73,-99.99,,,0.00,Acu-Link.com,2014-01-04 15:40:00,
2014-01-04 06:55:00,29.8,20.9,30.37,NE,45,13.0,-999.0,69,-99.99,,,0.00,Acu-Link.com,2014-01-04 15:55:00,
2014-01-04 07:10:00,29.7,21.1,30.36,NNE,22,7.3,-999.0,70,-99.99,,,0.00,Acu-Link.com,2014-01-04 16:10:00,
2014-01-04 07:26:00,30.0,21.4,30.36,NNE,22,12.5,-999.0,70,-99.99,,,0.00,Acu-Link.com,2014-01-04 16:26:00,
2014-01-04 07:41:00,30.4,21.1,30.34,NE,45,11.9,-999.0,68,-99.99,,,0.00,Acu-Link.com,2014-01-04 16:41:00,
2014-01-04 07:56:00,30.4,21.8,30.34,NW,315,10.9,-999.0,70,-99.99,,,0.00,Acu-Link.com,2014-01-04 16:56:00,
2014-01-04 08:11:00,30.6,21.0,30.32,NE,45,9.9,-999.0,67,-99.99,,,0.00,Acu-Link.com,2014-01-04 17:11:00,
2014-01-04 08:26:00,30.6,21.0,30.32,NNE,22,6.3,-999.0,67,-99.99,,,0.00,Acu-Link.com,2014-01-04 17:26:00,
2014-01-04 08:42:00,31.1,21.4,30.31,NE,45,13.0,-999.0,67,-99.99,,,0.00,Acu-Link.com,2014-01-04 17:42:00,
2014-01-04 08:57:00,30.6,21.0,30.31,WSW,247,11.9,-999.0,67,-99.99,,,0.00,Acu-Link.com,2014-01-04 17:57:00,
2014-01-04 09:12:00,30.4,20.8,30.30,NE,45,7.8,-999.0,67,-99.99,,,0.00,Acu-Link.com,2014-01-04 18:12:00,
2014-01-04 09:27:00,30.2,20.6,30.30,NE,45,10.4,-999.0,67,-99.99,,,0.00,Acu-Link.com,2014-01-04 18:27:00,
2014-01-04 09:43:00,30.6,21.0,30.28,NE,45,17.1,-999.0,67,-99.99,,,0.00,Acu-Link.com,2014-01-04 18:43:00,
2014-01-04 09:58:00,29.7,21.1,30.27,ENE,67,18.1,-999.0,70,-99.99,,,0.00,Acu-Link.com,2014-01-04 18:58:00,
2014-01-04 10:13:00,30.2,21.3,30.28,North,0,17.1,-999.0,69,-99.99,,,0.00,Acu-Link.com,2014-01-04 19:13:00,
2014-01-04 10:28:00,30.4,21.1,30.27,East,90,13.5,-999.0,68,-99.99,,,0.00,Acu-Link.com,2014-01-04 19:28:00,
2014-01-04 10:43:00,30.4,21.5,30.26,NE,45,17.1,-999.0,69,-99.99,,,0.00,Acu-Link.com,2014-01-04 19:43:00,
2014-01-04 10:59:00,30.2,21.9,30.25,NE,45,14.0,-999.0,71,-99.99,,,0.00,Acu-Link.com,2014-01-04 19:59:00,
2014-01-04 11:14:00,30.0,22.1,30.24,North,0,17.6,-999.0,72,-99.99,,,0.00,Acu-Link.com,2014-01-04 20:14:00,
2014-01-04 11:31:00,30.0,22.1,30.25,NNE,22,6.8,-999.0,72,-99.99,,,0.00,Acu-Link.com,2014-01-04 20:31:00,
2014-01-04 11:47:00,30.2,21.6,30.23,NE,45,11.9,-999.0,70,-99.99,,,0.00,Acu-Link.com,2014-01-04 20:47:00,
2014-01-04 12:02:00,30.2,21.9,30.22,NE,45,13.0,-999.0,71,-99.99,,,0.00,Acu-Link.com,2014-01-04 21:02:00,
2014-01-04 12:17:00,30.2,22.3,30.20,NNE,22,14.5,-999.0,72,-99.99,,,0.00,Acu-Link.com,2014-01-04 21:17:00,
2014-01-04 12:33:00,29.8,23.5,30.17,NE,45,22.7,-999.0,77,-99.99,,,0.00,Acu-Link.com,2014-01-04 21:33:00,
2014-01-04 12:48:00,28.6,23.5,30.17,NNE,22,26.9,-999.0,81,-99.99,,,0.00,Acu-Link.com,2014-01-04 21:48:00,
2014-01-04 13:03:00,28.6,24.1,30.17,NE,45,21.7,-999.0,83,-99.99,,,0.02,Acu-Link.com,2014-01-04 22:03:00,
2014-01-04 13:19:00,28.8,24.3,30.15,NNE,22,14.0,-999.0,83,-99.99,,,0.02,Acu-Link.com,2014-01-04 22:19:00,
2014-01-04 13:34:00,28.9,23.8,30.15,SE,135,17.1,-999.0,81,-99.99,,,0.02,Acu-Link.com,2014-01-04 22:34:00,
2014-01-04 13:49:00,29.3,23.9,30.14,East,90,20.7,-999.0,80,-99.99,,,0.02,Acu-Link.com,2014-01-04 22:49:00,
2014-01-04 14:05:00,29.1,24.0,30.12,West,270,13.5,-999.0,81,-99.99,,,0.02,Acu-Link.com,2014-01-04 23:05:00,
2014-01-04 14:20:00,29.3,23.6,30.10,East,90,18.1,-999.0,79,-99.99,,,0.02,Acu-Link.com,2014-01-04 23:20:00,
2014-01-04 14:35:00,29.1,22.8,30.09,NNE,22,16.1,-999.0,77,-99.99,,,0.02,Acu-Link.com,2014-01-04 23:35:00,
2014-01-04 14:50:00,29.8,22.5,30.08,NE,45,18.6,-999.0,74,-99.99,,,0.02,Acu-Link.com,2014-01-04 23:50:00,
2014-01-04 15:05:00,28.8,21.6,30.08,NNE,22,14.5,-999.0,74,-99.99,,,0.02,Acu-Link.com,2014-01-05 00:05:00,
2014-01-04 15:21:00,29.3,21.4,30.08,NNE,22,18.1,-999.0,72,-99.99,,,0.02,Acu-Link.com,2014-01-05 00:21:00,
2014-01-04 15:36:00,28.8,20.9,30.05,NNE,22,20.7,-999.0,72,-99.99,,,0.02,Acu-Link.com,2014-01-05 00:36:00,
2014-01-04 15:51:00,28.8,21.3,30.04,NNW,337,17.1,-999.0,73,-99.99,,,0.02,Acu-Link.com,2014-01-05 00:51:00,
2014-01-04 16:06:00,28.4,20.2,30.03,NNE,22,18.1,-999.0,71,-99.99,,,0.02,Acu-Link.com,2014-01-05 01:06:00,
2014-01-04 16:22:00,28.6,20.7,30.01,NNE,22,22.2,-999.0,72,-99.99,,,0.02,Acu-Link.com,2014-01-05 01:22:00,
2014-01-04 16:37:00,28.9,20.0,30.02,NE,45,16.1,-999.0,69,-99.99,,,0.02,Acu-Link.com,2014-01-05 01:37:00,
2014-01-04 16:52:00,28.4,19.9,30.01,ENE,67,24.3,-999.0,70,-99.99,,,0.02,Acu-Link.com,2014-01-05 01:52:00,
2014-01-04 17:07:00,28.4,19.9,30.00,NNE,22,25.8,-999.0,70,-99.99,,,0.02,Acu-Link.com,2014-01-05 02:07:00,
2014-01-04 17:23:00,28.8,19.2,30.01,West,270,23.8,-999.0,67,-99.99,,,0.02,Acu-Link.com,2014-01-05 02:23:00,
2014-01-04 17:38:00,28.4,19.6,30.01,NE,45,14.5,-999.0,69,-99.99,,,0.02,Acu-Link.com,2014-01-05 02:38:00,
2014-01-04 17:53:00,28.8,19.6,29.99,NNE,22,17.1,-999.0,68,-99.99,,,0.02,Acu-Link.com,2014-01-05 02:53:00,
2014-01-04 18:09:00,28.6,19.7,30.00,NNE,22,13.5,-999.0,69,-99.99,,,0.02,Acu-Link.com,2014-01-05 03:09:00,
2014-01-04 18:24:00,29.3,20.4,29.98,North,0,13.5,-999.0,69,-99.99,,,0.02,Acu-Link.com,2014-01-05 03:24:00,
2014-01-04 18:40:00,29.3,19.7,30.00,NE,45,16.1,-999.0,67,-99.99,,,0.02,Acu-Link.com,2014-01-05 03:40:00,
2014-01-04 18:55:00,28.8,18.9,29.98,NE,45,19.7,-999.0,66,-99.99,,,0.02,Acu-Link.com,2014-01-05 03:55:00,
2014-01-04 19:10:00,29.1,19.5,29.98,ENE,67,19.7,-999.0,67,-99.99,,,0.02,Acu-Link.com,2014-01-05 04:10:00,
2014-01-04 19:26:00,29.3,19.4,29.96,NW,315,14.0,-999.0,66,-99.99,,,0.02,Acu-Link.com,2014-01-05 04:26:00,
2014-01-04 19:41:00,29.3,19.4,29.98,ENE,67,18.6,-999.0,66,-99.99,,,0.02,Acu-Link.com,2014-01-05 04:41:00,
2014-01-04 19:57:00,29.3,20.1,29.96,East,90,23.3,-999.0,68,-99.99,,,0.02,Acu-Link.com,2014-01-05 04:57:00,
2014-01-04 20:12:00,29.3,20.1,29.94,ENE,67,22.7,-999.0,68,-99.99,,,0.02,Acu-Link.com,2014-01-05 05:12:00,
2014-01-04 20:27:00,29.8,20.5,29.93,NE,45,22.7,-999.0,68,-99.99,,,0.02,Acu-Link.com,2014-01-05 05:27:00,
2014-01-04 20:42:00,29.7,20.5,29.91,WNW,292,20.7,-999.0,68,-99.99,,,0.03,Acu-Link.com,2014-01-05 05:42:00,
2014-01-04 20:58:00,30.0,21.1,29.93,NE,45,18.1,-999.0,69,-99.99,,,0.03,Acu-Link.com,2014-01-05 05:58:00,
2014-01-04 21:13:00,30.6,22.3,29.90,WNW,292,21.7,-999.0,71,-99.99,,,0.03,Acu-Link.com,2014-01-05 06:13:00,
2014-01-04 21:28:00,30.7,21.4,29.89,ENE,67,22.7,-999.0,68,-99.99,,,0.04,Acu-Link.com,2014-01-05 06:28:00,
2014-01-04 21:43:00,30.4,21.5,29.90,NE,45,14.5,-999.0,69,-99.99,,,0.04,Acu-Link.com,2014-01-05 06:43:00,
2014-01-04 21:58:00,30.7,21.8,29.88,ENE,67,24.8,-999.0,69,-99.99,,,0.04,Acu-Link.com,2014-01-05 06:58:00,
2014-01-04 22:14:00,30.7,21.4,29.88,NNE,22,23.3,-999.0,68,-99.99,,,0.04,Acu-Link.com,2014-01-05 07:14:00,
2014-01-04 22:29:00,30.7,21.4,29.86,NNW,337,20.7,-999.0,68,-99.99,,,0.04,Acu-Link.com,2014-01-05 07:29:00,
2014-01-04 22:44:00,31.3,21.6,29.86,NNE,22,20.7,-999.0,67,-99.99,,,0.04,Acu-Link.com,2014-01-05 07:44:00,
2014-01-04 22:59:00,31.3,21.6,29.87,NNE,22,21.2,-999.0,67,-99.99,,,0.04,Acu-Link.com,2014-01-05 07:59:00,
2014-01-04 23:14:00,30.9,21.6,29.86,NNE,22,19.7,-999.0,68,-99.99,,,0.04,Acu-Link.com,2014-01-05 08:14:00,
2014-01-04 23:30:00,31.5,21.8,29.86,NE,45,21.7,-999.0,67,-99.99,,,0.04,Acu-Link.com,2014-01-05 08:30:00,
2014-01-04 23:46:00,31.3,22.0,29.86,NE,45,21.7,-999.0,68,-99.99,,,0.05,Acu-Link.com,2014-01-05 08:46:00,